Regional Weather Roundup
Issued by NWS

Home | Current Version | Previous Version | Text Only | Print | Product List | Glossary On
Versions: 1 2 3 4 5 6 7 8 9 10 11 12 13 14 15 16 17 18 19 20 21 22 23 24 25 26 27 28 29 30 31 32 33 34 35 36 37 38 39 40 41 42 43 44 45 46 47 48 49 50
000
ASUS43 KLOT 260304
RWRIL

ILLINOIS REGIONAL WEATHER ROUNDUP
NATIONAL WEATHER SERVICE CHICAGO/ROMEOVILLE IL
1000 PM CDT MON SEP 25 2017

NOTE: "FAIR" INDICATES FEW OR NO CLOUDS BELOW 12,000 FEET WITH NO
SIGNIFICANT WEATHER AND/OR OBSTRUCTIONS TO VISIBILITY.

* THESE STATIONS ARE NOT UNDER NWS QUALITY CONTROL. THEY ALSO MAY NOT
  REPORT WEATHER SUCH AS PRECIPITATION OR FOG.

ILZ001-002-007-009-015-016-024-260400-
NORTHWEST ILLINOIS

CITY           SKY/WX    TMP DP  RH WIND       PRES   REMARKS
MOLINE         CLOUDY    72  67  84 CALM      29.90S
STERLING*      CLEAR     68  61  78 CALM      29.93R
SAVANNA*       CLOUDY    72  65  76 NE3       29.91S
$$

ILZ003-004-008-010-011-017-018-260400-
NORTH CENTRAL ILLINOIS

CITY           SKY/WX    TMP DP  RH WIND       PRES   REMARKS
ROCKFORD       PTCLDY    74  60  61 S3        29.94S
FREEPORT*      CLEAR     69  59  71 CALM      29.95R
ROCHELLE*      CLEAR     68  60  75 S5        29.94R
DE KALB*       PTCLDY    74  61  63 S7        29.95S
$$

ILZ005-006-012>014-019>023-260400-
NORTHEAST ILLINOIS

CITY           SKY/WX    TMP DP  RH WIND       PRES   REMARKS
CHICAGO-OHARE  PTCLDY    76  57  51 SE6       29.93F
CHICAGO-MIDWAY PTCLDY    81  58  45 SE6       29.94S HX  81
AURORA         MOCLDY    75  62  64 SE6       29.94F
LANSING*       CLEAR     69  62  76 S5        29.95F
JOLIET*        CLEAR     77  61  57 CALM      29.94S
WAUKEGAN       CLEAR     74  62  66 SE5       29.93F
DUPAGE AIRPORT MOCLDY    75  61  61 SE5       29.94S
KANKAKEE*      CLEAR     70  61  72 SE3       29.95F
WHEELING       CLEAR     74  62  66 CALM      29.95S
MORRIS*        CLEAR     74  60  60 SE5       29.93S
NORTHERLY ISL    N/A     72  66  81 SW1         N/A
$$

LMZ740>746-260400-
SOUTHERN LAKE MICHIGAN

STATION/POSITION SKY/WX   TEMP    WIND        PRES    VSBY  WAVE
                          AIR SEA DIR/SP/G                  HT/PER
                          (F)     (DEG/KT/KT) (MB)    (MI)  (FT/S)
SOUTHERN BUOY              75 71  150/  4/  4 1014.1          0
WILMETTE HARBOR            73 71  150/  6/  6   N/A           1
HARRISON CRIB              76     160/  7/  8   N/A
BURNHAM HARBOR             72                   N/A
CALUMET HARBOR             81     160/  4/  5 1013.5S
BURNS HARBOR               79     170/  4/  6 1014.6F
MICHIGAN CITY              77     140/  7/  8   N/A
MICHIGAN CITY 6N           74 72  160/  6/  6   N/A           0
ST. JOSEPH                 75 72  170/  4/  4 1014.1F         0
$$

ILZ025>027-034>036-040-047-049-050-058-095>099-260400-
WEST-CENTRAL ILLINOIS

CITY           SKY/WX    TMP DP  RH WIND       PRES   REMARKS
QUINCY         CLOUDY    74  66  76 SE6       29.92R
GALESBURG*     CLEAR     67  63  86 CALM      29.94S
MACOMB*        CLEAR     68  63  83 CALM      29.95S
$$

ILZ028>032-037-038-041>044-048-051>054-059>061-260400-
CENTRAL ILLINOIS

CITY           SKY/WX    TMP DP  RH WIND       PRES   REMARKS
BLOOMINGTON    CLEAR     73  62  68 S3        29.96S
DECATUR        CLEAR     73  62  68 CALM      29.95R
PEORIA         PTCLDY    75  63  66 CALM      29.93R
LACON*         PTCLDY    71  61  70 S3        29.92S
LINCOLN*       CLEAR     72  64  75 CALM      29.94S
SPRINGFIELD    CLEAR     73  63  70 S3        29.94R
TAYLORVILLE    NOT AVBL
$$

ILZ033-039-045-046-055>057-062-063-260400-
EAST-CENTRAL ILLINOIS

CITY           SKY/WX    TMP DP  RH WIND       PRES   REMARKS
CHAMPAIGN      CLEAR     75  59  57 S6        29.96S
MATTOON        CLEAR     76  63  64 S5        29.95R
PARIS*         CLEAR     72  63  74 SE7       29.97S
$$

ILZ079-100>102-260400-
SOUTHWEST ILLINOIS

CITY           SKY/WX    TMP DP  RH WIND       PRES   REMARKS
ALTON          CLEAR     70  64  83 SE6       29.94S
BELLEVILLE     CLEAR     71  64  78 CALM      29.93S
CAHOKIA*       CLEAR     75  61  61 S5        29.94R
SPARTA*        CLEAR     71  63  77 SE3       29.96S
$$

ILZ064>066-069>071-074>076-080>082-084>086-088>090-092>094-260400-
SOUTH-CENTRAL ILLINOIS

CITY           SKY/WX    TMP DP  RH WIND       PRES   REMARKS
CARBONDALE     CLEAR     68  67  96 CALM      29.95R
MARION         CLEAR     75  66  73 CALM      29.97R
MT. VERNON       N/A     71  67  87 CALM      29.96R
CENTRALIA*     CLEAR     69  64  82 CALM      29.95S
SALEM*         CLEAR     73  63  69 SE3       29.96R
METROPOLIS*    CLEAR     69  66  90 CALM      29.96S
$$

ILZ067-068-072-073-078-083-087-091-260400-
SOUTHEAST ILLINOIS

CITY           SKY/WX    TMP DP  RH WIND       PRES   REMARKS
LAWRENCEVILLE  CLEAR     73  66  78 E3        29.97R
FLORA*         CLEAR     73  64  73 CALM      29.96S
FAIRFIELD*     CLEAR     70  62  73 CALM      29.95R
HARRISBURG*    CLEAR     71  65  83 CALM      29.96S
ROBINSON*      CLEAR     69  66  89 CALM      29.97S
CARMI*         PTCLDY    69  66  88 CALM      29.96R
$$

ABBREVIATIONS USED IN REMARKS
   TC - TEMPERATURE IN CELSIUS
  WCI - WIND CHILL INDEX
   HX - HEAT INDEX
  VSB - VISIBILITY
$$





USA.gov is the U.S. government's official web portal to all federal, state and local government web resources and services.